This is the latest recevied weather packets stored in our database for station/object SR2WXM. If no packets are shown the sender has not sent any weather packets the latest 10 day(s).
| Time | Temp. | Humidity | Pressure | Rain* | Wind** | Luminosity | Snow |
|---|---|---|---|---|---|---|---|
| 1777754702 | 12.78° C | 61% | 1016.2 hPa | 0 mm | - | - | - |
| 1777753803 | 13.89° C | 60% | 1016.5 hPa | 0 mm | - | - | - |
| 1777752902 | 13.89° C | 55% | 1016.5 hPa | 0 mm | - | - | - |
| 1777752004 | 13.89° C | 55% | 1016.5 hPa | 0 mm | - | - | - |
| 1777751102 | 15.56° C | 49% | 1016.5 hPa | 0 mm | - | - | - |
| 1777750203 | 15.56° C | 49% | 1016.5 hPa | 0 mm | - | - | - |
| 1777749302 | 16.67° C | 47% | 1016.5 hPa | 0 mm | - | - | - |
| 1777748403 | 16.67° C | 44% | 1016.5 hPa | 0 mm | - | - | - |
| 1777747502 | 17.78° C | 43% | 1016.5 hPa | 0 mm | - | - | - |
| 1777746601 | 17.78° C | 41% | 1016.5 hPa | 0 mm | - | - | - |
| 1777745703 | 18.89° C | 38% | 1016.5 hPa | 0 mm | - | - | - |
| 1777744802 | 20.56° C | 37% | 1016.5 hPa | 0 mm | - | - | - |
| 1777743903 | 20.56° C | 35% | 1016.5 hPa | 0 mm | - | - | - |
| 1777743001 | 21.67° C | 33% | 1016.5 hPa | 0 mm | - | - | - |
| 1777742101 | 22.78° C | 30% | 1016.9 hPa | 0 mm | - | - | - |
| 1777741202 | 22.78° C | 30% | 1016.9 hPa | 0 mm | - | - | - |
| 1777740302 | 23.89° C | 30% | 1016.9 hPa | 0 mm | - | - | - |
| 1777739402 | 23.89° C | 30% | 1016.9 hPa | 0 mm | - | - | - |
| 1777738501 | 25° C | 30% | 1017.2 hPa | 0 mm | - | - | - |
| 1777737602 | 25° C | 28% | 1017.2 hPa | 0 mm | - | - | - |
| 1777736702 | 25° C | 30% | 1017.2 hPa | 0 mm | - | - | - |
| 1777735802 | 25° C | 29% | 1017.6 hPa | 0 mm | - | - | - |
| 1777734902 | 25° C | 30% | 1017.6 hPa | 0 mm | - | - | - |
| 1777734002 | 25° C | 29% | 1017.9 hPa | 0 mm | - | - | - |
| 1777733102 | 25° C | 28% | 1017.9 hPa | 0 mm | - | - | - |
* Rain latest hour (hover to see other rain measurements)
** Current wind speed in m/s (hover to see current wind gust speed)